Tracking 19720 objects as of 26-Jun-2019
HD Live streaming from Space Station
objects crossing your sky now

METEOR 2-8 DEB

Track METEOR 2-8 DEB now!
10-day predictions


NORAD ID: 36355
Int'l Code: 1982-025AR
Perigee: 838.8 km
Apogee: 877.2 km
Inclination: 82.5 °
Period: 101.9 minutes
Semi major axis: 7228 km
RCS: 0.0127 m2 (small)
Launch date: March 25, 1982
Source: Commonwealth of Independent States (former USSR) (CIS)
Launch site: PLESETSK MISSILE AND SPACE COMPLEX (PKMTR)

Note: This is SATELLITE DEBRIS
aabbcc
Your satellite tracking list
Your tracking list is empty




NASA's NSSDC Master Catalog

Two Line Element Set (TLE):
1 36355U 82025AR  19170.30231561 +.00000713 +00000-0 +37657-3 0  9990
2 36355 082.5230 166.3926 0026575 067.0920 293.3057 14.12498071849395
Source of the keplerian elements: AFSPC